Location: Saint-Palais-sur-Mer
(45.6429°N, 1.0859°W)
Time: 23:59:57
(UTC+01:00)

Vanguard 1 - Pass Details

Date: 13 February 2026
Orbit: 653 x 3818 km, 34.2° (Epoch: 12 March)

Event Time Altitude Azimuth Distance (km) Brightness Sun altitude
Rises 19:19:50 0° 253° (WSW) 5,829 16.2 -9.6°
Reaches altitude 10° 19:23:07 10° 249° (WSW) 5,166 15.2 -10.2°
Maximum altitude 19:39:26 59° 176° (S) 3,792 13.0 -13.0°
Enters shadow 19:59:33 15° 106° (ESE) 6,437 13.6 -16.5°
